Погода в Белвью

США     47°36′01″N   122°09′32″W
темп.,
°C
ветер,
м/с
пор.,
м/с
влажн.,
%
обл.,
%
осадки,
мм/ч
давл.,
гПа
погр.,
м
14 августа, вс
вс1423:00+17ссв23670 0.0 1021164
02:00+15св12770 0.0 102194
05:00+14в01830 0.0 102125
08:00+17ссв01755 0.0 1021296
11:00+23ссз224872 0.0 10201031
14:00+27ссз223655 0.0 10191312
17:00+27ссз44331 0.0 10181126
20:00+22с36442 0.0 1018301
15 августа, пн
пн1523:00+17св266240 0.0 1018230
02:00+16всв127266 0.0 1018111
05:00+14с11795 0.0 101826
08:00+17всв0168100 0.0 1018244
11:00+24ссз11435 0.0 1018732
14:00+29ссз2231100 0.0 10161312
17:00+29с3231100 0.0 10151413
20:00+23с354823 0.0 1015259
16 августа, вт
вт1623:00+19св236913 0.0 1017152
02:00+17ююв127693 0.0 101776
05:00+16ю118544 0.0 101767
08:00+18ююз017793 0.0 1018240
11:00+24с2349100 0.0 1018828
14:00+29с3436100 0.0 10161350
17:00+28с45280 0.0 1014948
20:00+22с38490 0.0 1015343
17 августа, ср
ср1723:00+18св37620 0.0 1015253
02:00+17ссв24740 0.0 1016172
05:00+15с12810 0.0 101687
08:00+19с13670 0.0 1016214
11:00+26с34410 0.0 1015705
14:00+31ссз44320 0.0 1013879
17:00+31ссз45310 0.0 1011759
20:00+25с2547100 0.0 1012229
18 августа, чт
чт1823:00+22ссв236196 0.0 1013109
02:00+21ссв1264100 0.0 101375
05:00+19с11710 0.0 101316
08:00+22с11600 0.0 1013181
11:00+29ссз23370 0.0 1012694
14:00+33ссз3327100 0.0 1010918
17:00+33ссз2227100 0.0 1010731
20:00+27с2442100 0.0 1010133